This is the latest recevied weather packets stored in our database for station/object IR3ZXT. If no packets are shown the sender has not sent any weather packets the latest 10 day(s).
| Time | Temp. | Humidity | Pressure | Rain* | Wind** | Luminosity | Snow |
|---|---|---|---|---|---|---|---|
| 1787826016 | 19.44° C | 64% | 870.6 hPa | 0 mm | - | - | - |
| 1787825716 | 19.44° C | 66% | 870.5 hPa | 0 mm | - | - | - |
| 1787825416 | 19.44° C | 64% | 870.5 hPa | 0 mm | - | - | - |
| 1787825160 | 19.44° C | 61% | 870.4 hPa | 0 mm | - | - | - |
| 1787825116 | 19.44° C | 61% | 870.4 hPa | 0 mm | - | - | - |
| 1787824816 | 20° C | 59% | 870.3 hPa | 0 mm | - | - | - |
| 1787824516 | 20° C | 59% | 870.4 hPa | 0 mm | - | - | - |
| 1787824257 | 20° C | 60% | 870.3 hPa | 0 mm | - | - | - |
| 1787824216 | 20° C | 60% | 870.3 hPa | 0 mm | - | - | - |
| 1787823916 | 20° C | 63% | 870.5 hPa | 0 mm | - | - | - |
| 1787823616 | 19.44° C | 62% | 870.4 hPa | 0 mm | - | - | - |
| 1787823316 | 19.44° C | 61% | 870.3 hPa | 0 mm | - | - | - |
| 1787823048 | 19.44° C | 61% | 870.4 hPa | 0 mm | - | - | - |
| 1787823017 | 19.44° C | 61% | 870.4 hPa | 0 mm | - | - | - |
| 1787822716 | 20° C | 60% | 870.4 hPa | 0 mm | - | - | - |
| 1787822453 | 20.56° C | 59% | 870.4 hPa | 0 mm | - | - | - |
| 1787822416 | 20.56° C | 59% | 870.4 hPa | 0 mm | - | - | - |
| 1787822117 | 20° C | 59% | 870.3 hPa | 0 mm | - | - | - |
| 1787821817 | 20° C | 58% | 870.3 hPa | 0 mm | - | - | - |
| 1787821637 | 20° C | 59% | 870.2 hPa | 0 mm | - | - | - |
| 1787821588 | 20° C | 59% | 870.2 hPa | 0 mm | - | - | - |
| 1787821551 | 20° C | 59% | 870.2 hPa | 0 mm | - | - | - |
| 1787821517 | 20° C | 59% | 870.2 hPa | 0 mm | - | - | - |
| 1787821217 | 19.44° C | 60% | 870.3 hPa | 0 mm | - | - | - |
| 1787820917 | 19.44° C | 61% | 870.3 hPa | 0 mm | - | - | - |
* Rain latest hour (hover to see other rain measurements)
** Current wind speed in m/s (hover to see current wind gust speed)